Weather History for Concordia, KS

Change the Weather History Date:

Friday, June 22, 2012

  Actual Average Record
Temperature  
Mean Temperature 73 °F 76 °F  
Max Temperature 87 °F 87 °F 103 °F (1988)
Min Temperature 58 °F 64 °F 49 °F (1972)
Degree Days  
Heating Degree Days 0 0  
Month to date heating degree days 13 11  
Since 1 June heating degree days 13 11  
Since 1 July heating degree days 4317 5406  
Cooling Degree Days 8 11  
Month to date cooling degree days 230 171  
Year to date cooling degree days 474 260  
Since 1 June cooling degree days 230 171  
Growing Degree Days 22 (Base 50)    
Moisture  
Dew Point 56 °F    
Average Humidity 59    
Maximum Humidity 87    
Minimum Humidity 30    
Precipitation  
Precipitation 0.00 in 0.14 in 1.59 in (1947)
Month to date precipitation 3.62 2.94  
Year to date precipitation 12.59 12.93  
Snow  
Snow 0.00 in 0.00 in T in (1929)
Month to date snowfall 0.0 0.0  
Year to date snowfall 5.8 13.7  
Since 1 July snowfall 6.7 20.2  
Snow Depth 0.00 in    
Sea Level Pressure  
Sea Level Pressure 29.98 in    
Wind  
Wind Speed 10 mph (SE)    
Max Wind Speed 23 mph    
Max Gust Speed 28 mph    
Visibility 10 miles    
Events      
T = Trace of Precipitation, MM = Missing Value Source: NWS Daily Summary

Daily Weather History Graph

Daily Weather History Graph

Search for Another Location

Airport:

Trip Planner

Search our weather history database for the weather conditions in past years. The results will help you decide how hot, cold, wet, or windy it might be!

Date:

Astronomy

Jun. 22, 2012 Rise Set
Actual Time 6:03 AM CDT 9:01 PM CDT
Civil Twilight 5:31 AM CDT 9:34 PM CDT
Nautical Twilight 4:49 AM CDT 10:15 PM CDT
Astronomical Twilight 4:02 AM CDT 11:03 PM CDT
Moon 9:03 AM CDT (6/22) 11:00 PM CDT (6/22)
Length of Visible Light 16h 03m
Length of Day
14h 57m
Waxing Crescent, 9% of the Moon is Illuminated
Jun 22
Waxing Crescent
Jun 26
First Quarter
Jul 3
Full
Jul 10
Last Quarter
Jul 18
New

Hourly Weather History & Observations

Time (CDT) Temp. Heat Index Dew Point Humidity Pressure Visibility Wind Dir Wind Speed Gust Speed Precip Events Conditions
12:55 AM 64.9 °F - 55.9 °F 73% 30.06 in 10.0 mi Calm Calm - N/A   Clear
1:55 AM 60.8 °F - 55.4 °F 82% 30.09 in 10.0 mi SE 4.6 mph - N/A   Clear
2:55 AM 61.0 °F - 55.0 °F 81% 30.06 in 10.0 mi SSE 4.6 mph - N/A   Clear
3:55 AM 60.1 °F - 54.0 °F 80% 30.06 in 10.0 mi Calm Calm - N/A   Clear
4:55 AM 59.0 °F - 55.0 °F 87% 30.06 in 10.0 mi Calm Calm - N/A   Clear
5:55 AM 59.0 °F - 55.0 °F 87% 30.06 in 10.0 mi SSE 4.6 mph - N/A   Clear
6:55 AM 61.0 °F - 55.9 °F 83% 30.06 in 10.0 mi SE 4.6 mph - N/A   Clear
7:55 AM 66.9 °F - 60.1 °F 79% 30.06 in 10.0 mi SE 5.8 mph - N/A   Clear
8:55 AM 72.0 °F - 59.0 °F 64% 30.06 in 10.0 mi South 10.4 mph - N/A   Clear
9:55 AM 75.2 °F - 59.0 °F 57% 30.09 in 10.0 mi SSE 11.5 mph - N/A   Clear
10:55 AM 78.1 °F - 59.0 °F 52% 30.04 in 10.0 mi South 11.5 mph - N/A   Clear
11:55 AM 80.1 °F 80.6 °F 57.9 °F 47% 30.02 in 10.0 mi SE 12.7 mph 18.4 mph N/A   Clear
12:55 PM 82.0 °F 81.7 °F 57.0 °F 42% 30.00 in 10.0 mi SSE 9.2 mph 18.4 mph N/A   Clear
1:55 PM 84.0 °F 83.3 °F 57.0 °F 40% 29.98 in 10.0 mi SE 13.8 mph 23.0 mph N/A   Clear
2:55 PM 86.0 °F 84.7 °F 55.9 °F 36% 29.95 in 10.0 mi SE 13.8 mph - N/A   Clear
3:55 PM 86.0 °F 84.7 °F 55.9 °F 36% 29.93 in 10.0 mi SSE 17.3 mph 21.9 mph N/A   Clear
4:55 PM 86.0 °F 84.5 °F 55.0 °F 35% 29.91 in 10.0 mi SE 17.3 mph 24.2 mph N/A   Clear
5:55 PM 86.0 °F - 51.1 °F 30% 29.88 in 10.0 mi SE 18.4 mph - N/A   Clear
6:55 PM 84.9 °F - 50.0 °F 30% 29.86 in 10.0 mi SE 19.6 mph 27.6 mph N/A   Clear
7:55 PM 81.0 °F 80.7 °F 55.0 °F 41% 29.86 in 10.0 mi SE 15.0 mph - N/A   Clear
8:55 PM 75.9 °F - 55.9 °F 50% 29.86 in 10.0 mi SE 9.2 mph - N/A   Clear
9:55 PM 73.9 °F - 57.0 °F 55% 29.86 in 10.0 mi SE 10.4 mph - N/A   Clear
10:55 PM 72.0 °F - 57.9 °F 61% 29.85 in 10.0 mi SE 10.4 mph - N/A   Clear
11:55 PM 73.0 °F - 55.9 °F 55% 29.85 in 10.0 mi SSE 11.5 mph - N/A   Clear